CW9887 Weather Reports


Display with metric or nautical units.
time (UTC)temp
F
wind
direction
speed
MPH
gust
MPH
rain 1hr
in
rain 24hr
in
rain mn
in
humidity
%
barometer
mb
20260507130440 49 205 3.0 0.0 0.00 0.00 0.00 85 1006.6
20260507130048 48 179 3.0 0.0 0.00 0.00 0.00 86 1006.9
20260507124947 49 360 4.0 0.0 0.00 0.00 0.00 84 1006.6
20260507124903 49 263 4.0 0.0 0.00 0.00 0.00 85 1006.6
20260507124537 49 223 3.0 0.0 0.00 0.00 0.00 85 1006.8
20260507123010 48 306 2.0 0.0 0.00 0.00 0.00 86 1006.7
20260507121906 48 113 2.0 0.0 0.00 0.00 0.00 88 1006.5
20260507121541 47 18 2.0 0.0 0.00 0.00 0.00 89 1006.7
20260507120356 47 216 2.0 0.0 0.00 0.00 0.00 90 1006.7
20260507120042 46 261 1.0 0.0 0.00 0.00 0.00 90 1006.9
20260507114938 46 235 2.0 0.0 0.00 0.00 0.00 91 1006.5
20260507114856 46 235 2.0 0.0 0.00 0.00 0.00 92 1006.5
20260507114552 45 213 1.0 0.0 0.00 0.00 0.00 92 1006.8
20260507113349 45 250 2.0 0.0 0.00 0.00 0.00 93 1006.6
20260507113118 45 265 2.0 0.0 0.00 0.00 0.00 94 1006.8
20260507111846 44 254 1.0 0.0 0.00 0.00 0.00 95 1006.7
20260507111532 44 245 0.0 0.0 0.00 0.00 0.00 96 1006.8
20260507110051 42 236 1.0 0.0 0.00 0.00 0.00 98 1006.7
20260507104849 42 239 2.0 0.0 0.00 0.00 0.00 98 1006.4
20260507104558 42 242 2.0 0.0 0.00 0.00 0.00 98 1006.5
20260507103346 41 232 1.0 0.0 0.00 0.00 0.00 98 1006.2
20260507103049 41 229 1.0 0.0 0.00 0.00 0.00 98 1006.3
20260507101847 41 229 1.0 0.0 0.00 0.00 0.00 98 1006.2
20260507101530 40 229 1.0 0.0 0.00 0.00 0.00 98 1006.5
20260507100055 40 229 0.0 0.0 0.00 0.00 0.00 98 1006.5
20260507094844 40 229 0.0 0.0 0.00 0.00 0.00 98 1006.5
20260507094552 40 229 0.0 0.0 0.00 0.00 0.00 98 1006.7
20260507093346 41 229 2.0 0.0 0.00 0.00 0.00 98 1006.5
20260507093046 40 229 1.0 0.0 0.00 0.00 0.00 98 1006.7
20260507091842 41 213 0.0 0.0 0.00 0.00 0.00 98 1006.7
20260507091548 41 213 0.0 0.0 0.00 0.00 0.00 98 1006.8
20260507090342 42 213 1.0 0.0 0.00 0.00 0.00 98 1006.3
20260507090046 41 213 1.0 0.0 0.00 0.00 0.00 98 1006.3
20260507084842 42 213 0.0 0.0 0.00 0.00 0.00 98 1006.0
20260507084552 41 213 0.0 0.0 0.00 0.00 0.00 98 1006.2
20260507083339 42 213 0.0 0.0 0.00 0.00 0.00 98 1006.1
20260507083058 42 213 0.0 0.0 0.00 0.00 0.00 98 1006.3
20260507081855 42 213 1.0 0.0 0.00 0.00 0.00 98 1006.0
20260507081538 42 213 1.0 0.0 0.00 0.00 0.00 98 1005.7
20260507080002 42 223 1.0 0.0 0.00 0.00 0.00 98 1006.2
20260507074857 43 221 1.0 0.0 0.00 0.00 0.00 98 1006.0
20260507074517 42 221 1.0 0.0 0.00 0.00 0.00 98 1006.0
20260507073023 42 68 1.0 0.0 0.00 0.00 0.00 98 1006.1
20260507071543 43 68 1.0 0.0 0.00 0.00 0.00 98 1005.6
20260507070357 44 266 1.0 0.0 0.00 0.00 0.00 98 1005.2
20260507070107 43 267 2.0 0.0 0.00 0.00 0.00 98 1005.5
20260507064852 44 214 3.0 0.0 0.00 0.00 0.00 98 1005.7
20260507064559 43 256 3.0 0.0 0.00 0.00 0.00 98 1005.6
20260507063353 44 223 2.0 0.0 0.00 0.00 0.00 98 1005.4
20260507063055 44 261 3.0 0.0 0.00 0.00 0.00 98 1005.6
20260507061849 44 249 2.0 0.0 0.00 0.00 0.00 98 1005.7
20260507061537 44 30 3.0 0.0 0.00 0.00 0.00 98 1005.6
20260507060347 44 273 3.0 0.0 0.00 0.00 0.00 98 1005.3
20260507060055 44 282 3.0 0.0 0.00 0.00 0.00 98 1005.5
20260507054849 44 247 3.0 0.0 0.00 0.00 0.00 98 1005.8
20260507054548 44 241 3.0 0.0 0.00 0.00 0.00 98 1005.8
20260507053345 45 276 3.0 0.0 0.00 0.00 0.00 98 1005.5
20260507053006 44 264 3.0 0.0 0.00 0.00 0.00 98 1005.3
20260507051546 45 200 2.0 0.0 0.00 0.00 0.00 99 1005.1
20260507050348 46 269 2.0 0.0 0.00 0.00 0.00 99 1005.2
20260507050103 45 263 3.0 0.0 0.00 0.00 0.00 99 1005.2
20260507044844 46 284 2.0 0.0 0.00 0.00 0.00 99 1005.2
20260507044503 46 301 3.0 0.0 0.00 0.00 0.00 99 1005.2
20260507043045 46 157 1.0 0.0 0.00 0.00 0.00 99 1005.5
20260507041842 46 151 1.0 0.0 0.00 0.00 0.00 98 1005.4
20260507041548 46 151 1.0 0.0 0.00 0.00 0.00 98 1005.4
20260507040343 46 232 2.0 0.0 0.00 0.00 0.00 98 1005.3
20260507040049 46 232 2.0 0.0 0.00 0.00 0.00 98 1005.4
20260507034844 47 252 2.0 0.0 0.00 0.00 0.32 98 1005.5
20260507034506 46 294 2.0 0.0 0.00 0.00 0.32 98 1005.2
20260507033003 47 235 1.0 0.0 0.00 0.00 0.32 99 1005.1
20260507031546 47 206 1.0 0.0 0.00 0.00 0.32 99 1005.1
20260507030007 48 218 1.0 0.0 0.00 0.00 0.32 99 1005.3
20260507024547 48 245 1.0 0.0 0.00 0.00 0.30 99 1005.0
20260507023342 49 12 2.0 0.0 0.00 0.00 0.29 98 1005.0
20260507023043 48 214 3.0 0.0 0.00 0.00 0.28 98 1004.7
20260507021840 49 273 4.0 0.0 0.00 0.00 0.29 98 1005.1
20260507021554 49 281 4.0 0.0 0.00 0.00 0.28 98 1004.8
20260507020345 50 266 3.0 0.0 0.00 0.00 0.29 98 1004.6
20260507020045 50 261 3.0 0.0 0.00 0.00 0.28 98 1004.3
20260507014840 51 246 4.0 0.0 0.00 0.00 0.28 98 1004.6
20260507014545 51 261 4.0 0.0 0.00 0.00 0.28 98 1004.3
20260507013341 52 282 4.0 0.0 0.00 0.00 0.27 99 1004.2
20260507013100 52 271 3.0 0.0 0.00 0.00 0.27 99 1004.0
20260507011856 53 199 3.0 0.0 0.00 0.00 0.27 99 1004.0
20260507011543 53 304 3.0 0.0 0.00 0.00 0.26 99 1003.9
20260507010357 54 234 3.0 0.0 0.00 0.00 0.26 99 1004.1
20260507004856 54 269 4.0 0.0 0.00 0.00 0.26 99 1004.0
20260507004557 54 275 4.0 0.0 0.00 0.00 0.26 99 1003.7
20260507003353 55 234 4.0 0.0 0.00 0.00 0.25 99 1003.7
20260507003053 55 319 4.0 0.0 0.00 0.00 0.24 99 1003.5
20260507001849 58 297 2.0 0.0 0.00 0.00 0.20 100 1003.4
20260507001534 57 261 2.0 0.0 0.00 0.00 0.20 100 1003.0
20260507000354 58 250 3.0 0.0 0.00 0.00 0.18 100 1003.1
20260507000013 57 236 3.0 0.0 0.00 0.00 0.18 100 1002.8
20260506234605 57 246 3.0 0.0 0.00 0.00 0.17 100 1002.6
20260506233348 58 196 3.0 0.0 0.00 0.00 0.17 100 1003.0
20260506233050 57 287 4.0 0.0 0.00 0.00 0.17 100 1002.7
20260506231848 58 267 4.0 0.0 0.00 0.00 0.17 99 1002.9
20260506231531 58 248 4.0 0.0 0.00 0.00 0.17 99 1002.7
20260506230349 58 235 3.0 0.0 0.00 0.00 0.17 99 1002.9
20260506230048 58 200 3.0 0.0 0.00 0.00 0.17 99 1002.7
20260506224845 59 272 3.0 0.0 0.00 0.00 0.17 99 1002.9
20260506224548 58 192 3.0 0.0 0.00 0.00 0.17 99 1002.7
20260506223345 59 196 3.0 0.0 0.00 0.00 0.17 99 1003.0
20260506223049 58 154 4.0 0.0 0.00 0.00 0.17 99 1002.7
20260506221842 59 203 3.0 0.0 0.00 0.00 0.17 99 1002.9
20260506221544 59 188 3.0 0.0 0.00 0.00 0.17 99 1002.6
20260506220046 59 215 4.0 0.0 0.00 0.00 0.17 99 1002.8
20260506214843 59 207 3.0 0.0 0.00 0.00 0.17 99 1003.1
20260506214557 59 217 3.0 0.0 0.00 0.00 0.17 99 1002.8
20260506213355 59 190 4.0 0.0 0.00 0.00 0.17 99 1003.1
20260506213051 59 263 3.0 0.0 0.00 0.00 0.17 99 1002.8
20260506211848 60 213 3.0 0.0 0.00 0.00 0.17 99 1003.3
20260506211547 59 203 3.0 0.0 0.00 0.00 0.17 99 1003.0
20260506210347 59 188 3.0 0.0 0.00 0.00 0.17 99 1003.3
20260506210042 59 197 3.0 0.0 0.00 0.00 0.17 99 1003.1
20260506204839 59 195 4.0 0.0 0.00 0.00 0.17 99 1003.3
20260506204512 59 213 3.0 0.0 0.00 0.00 0.17 99 1003.0
20260506203052 59 229 3.0 0.0 0.00 0.00 0.17 99 1003.2
20260506201847 59 202 2.0 0.0 0.00 0.00 0.16 99 1003.6
20260506201553 59 186 2.0 0.0 0.00 0.00 0.16 99 1003.4
20260506200345 59 192 2.0 0.0 0.00 0.00 0.16 99 1004.0
20260506200112 59 178 1.0 0.0 0.00 0.00 0.16 99 1003.6
20260506194855 59 202 2.0 0.0 0.00 0.00 0.16 99 1004.0
20260506194611 59 213 2.0 0.0 0.00 0.00 0.15 99 1003.7
20260506193351 59 281 2.0 0.0 0.00 0.00 0.14 98 1004.1
20260506193046 59 253 2.0 0.0 0.00 0.00 0.13 98 1003.8
20260506191843 59 182 2.0 0.0 0.00 0.00 0.11 98 1004.2
20260506191546 59 241 2.0 0.0 0.00 0.00 0.11 98 1003.7
20260506190343 59 210 4.0 0.0 0.00 0.00 0.10 98 1004.4
20260506190047 59 196 3.0 0.0 0.00 0.00 0.10 98 1003.9
20260506184844 59 210 3.0 0.0 0.00 0.00 0.09 97 1004.7
20260506184544 59 215 3.0 0.0 0.00 0.00 0.08 97 1004.3
20260506183340 60 235 3.0 0.0 0.00 0.00 0.08 97 1004.9
20260506183002 59 206 3.0 0.0 0.00 0.00 0.08 97 1004.6
20260506181858 60 234 3.0 0.0 0.00 0.00 0.08 97 1005.1
20260506181547 59 208 3.0 0.0 0.00 0.00 0.07 97 1004.7
20260506180357 60 259 3.0 0.0 0.00 0.00 0.06 96 1005.4
20260506180056 59 230 3.0 0.0 0.00 0.00 0.06 96 1005.0
20260506174854 60 207 3.0 0.0 0.00 0.00 0.04 95 1005.5
20260506174602 60 244 3.0 0.0 0.00 0.00 0.04 95 1005.0
20260506173354 61 268 2.0 0.0 0.00 0.00 0.02 94 1005.5
20260506173015 61 209 2.0 0.0 0.00 0.00 0.02 93 1005.1
20260506171543 61 288 2.0 0.0 0.00 0.00 0.01 90 1005.0
20260506170353 63 262 2.0 0.0 0.00 0.00 0.00 87 1005.4
20260506170016 63 262 2.0 0.0 0.00 0.00 0.00 86 1004.8
20260506164514 64 261 3.0 0.0 0.00 0.00 0.00 84 1005.0
20260506163055 64 257 3.0 0.0 0.00 0.00 0.00 82 1005.0
20260506161849 65 196 3.0 0.0 0.00 0.00 0.00 83 1005.7
20260506161539 64 205 2.0 0.0 0.00 0.00 0.00 83 1005.2
20260506160355 64 171 2.0 0.0 0.00 0.00 0.00 86 1006.1
20260506160057 63 228 2.0 0.0 0.00 0.00 0.00 85 1005.7
20260506154853 64 216 2.0 0.0 0.00 0.00 0.00 85 1006.5
20260506154554 63 213 2.0 0.0 0.00 0.00 0.00 84 1006.1
20260506153349 63 232 3.0 0.0 0.00 0.00 0.00 83 1007.0
20260506153053 63 269 3.0 0.0 0.00 0.00 0.00 83 1006.4
20260506151851 63 211 3.0 0.0 0.00 0.00 0.00 83 1006.7
20260506151542 63 282 3.0 0.0 0.00 0.00 0.00 83 1006.4
20260506150351 63 255 3.0 0.0 0.00 0.00 0.00 83 1007.0
20260506150049 63 261 4.0 0.0 0.00 0.00 0.00 83 1006.4
20260506144847 63 236 3.0 0.0 0.00 0.00 0.00 84 1006.6
20260506144549 63 193 3.0 0.0 0.00 0.00 0.00 84 1006.3
20260506143347 63 183 2.0 0.0 0.00 0.00 0.00 86 1007.0
20260506143053 62 254 1.0 0.0 0.00 0.00 0.00 85 1006.4
20260506141843 61 182 2.0 0.0 0.00 0.00 0.00 86 1006.9
20260506141545 61 182 2.0 0.0 0.00 0.00 0.00 86 1006.4
20260506140018 60 214 1.0 0.0 0.00 0.00 0.00 87 1006.4
20260506134916 60 204 2.0 0.0 0.00 0.00 0.00 87 1006.8
20260506134551 59 205 2.0 0.0 0.00 0.00 0.00 87 1006.3
20260506133421 60 234 1.0 0.0 0.00 0.00 0.00 86 1007.2
20260506133052 59 236 1.0 0.0 0.00 0.00 0.00 87 1006.9
20260506131849 60 196 1.0 0.0 0.00 0.00 0.00 87 1007.5
20260506131531 59 196 1.0 0.0 0.00 0.00 0.00 88 1007.0